ID Time Temp Humidity Light PM2.5 PM10 Voltage Extra Firmware Position Fcnt TTN version Gateways Distance RSSI LSNR Radiosettings
2026-05-03 23:43:43 21.5625°C 79.6875% 3.38V v255 No position 3655 ttn.v3 - -114 -8.75 867.5MHz, SF9BW125, 4/5CR
2026-05-03 23:27:30 21.1875°C 80.125% 3.39V v255 No position 3654 ttn.v3 - -114 -10.75 868.5MHz, SF9BW125, 4/5CR
2026-05-03 23:11:16 20.5°C 84.3125% 3.39V v255 No position 3653 ttn.v3 - -99 -2.5 867.3MHz, SF9BW125, 4/5CR
- -114 -8.25 867.3MHz, SF9BW125, 4/5CR
2026-05-03 22:38:50 20.6875°C 86.0625% 3.39V v255 No position 3651 ttn.v3 - -105 1.75 867.1MHz, SF9BW125, 4/5CR
- -115 -13.75 867.1MHz, SF9BW125, 4/5CR
2026-05-03 22:06:23 20.6875°C 91.375% 3.39V v255 No position 3649 ttn.v3 - -105 2.25 867.9MHz, SF9BW125, 4/5CR
2026-05-03 21:52:21 21.375°C 92.5% 3.38V v255 No position 3648 ttn.v3 - -92 -18.5 868.5MHz, SF12BW125, 4/5CR
- -114 -19.5 868.5MHz, SF12BW125, 4/5CR
2026-05-03 21:34:07 21.875°C 96.9375% 3.39V v255 No position 3647 ttn.v3 - -104 0.75 867.7MHz, SF9BW125, 4/5CR
- -113 -12 867.7MHz, SF9BW125, 4/5CR
2026-05-03 21:01:40 21.25°C 79.875% 3.39V v255 No position 3645 ttn.v3 - -112 -11 867.5MHz, SF9BW125, 4/5CR
2026-05-03 20:45:26 21.1875°C 80.6875% 3.39V v255 No position 3644 ttn.v3 - -112 -14.25 868.1MHz, SF9BW125, 4/5CR
2026-05-03 20:29:13 21.5°C 78.625% 3.39V v255 No position 3643 ttn.v3 - -113 -8.5 867.3MHz, SF9BW125, 4/5CR
2026-05-03 20:12:59 21.625°C 77.8125% 3.38V v255 No position 3642 ttn.v3 - -109 -10.5 868.5MHz, SF9BW125, 4/5CR
2026-05-03 19:56:45 21.6875°C 77.375% 3.39V v255 No position 3641 ttn.v3 - -105 3.5 867.1MHz, SF9BW125, 4/5CR
- -115 -7.25 867.1MHz, SF9BW125, 4/5CR
2026-05-03 19:24:18 21.875°C 74.125% 3.39V v255 No position 3639 ttn.v3 - -109 3.5 867.9MHz, SF9BW125, 4/5CR
- -109 -9.25 867.9MHz, SF9BW125, 4/5CR
2026-05-03 19:08:05 21.75°C 74.125% 3.39V v255 No position 3638 ttn.v3 - -101 -5.5 868.1MHz, SF9BW125, 4/5CR
2026-05-03 18:51:51 21.875°C 73.5% 3.39V v255 No position 3637 ttn.v3 - -104 -1.75 867.7MHz, SF9BW125, 4/5CR
2026-05-03 17:30:43 21.5°C 74.4375% 3.38V v255 No position 3632 ttn.v3 - -109 -5.25 868.1MHz, SF9BW125, 4/5CR
2026-05-03 17:14:29 21.375°C 75.875% 3.39V v255 No position 3631 ttn.v3 - -106 0.25 867.1MHz, SF9BW125, 4/5CR
- -123 -8 867.1MHz, SF9BW125, 4/5CR
- -115 -12 867.1MHz, SF9BW125, 4/5CR
2026-05-03 16:58:16 21.25°C 77.5% 3.39V v255 No position 3630 ttn.v3 - -112 -11.5 868.5MHz, SF9BW125, 4/5CR
2026-05-03 16:42:03 20.875°C 79.8125% 3.39V v255 No position 3629 ttn.v3 - -104 -3.75 867.9MHz, SF9BW125, 4/5CR
- -115 -10.75 867.9MHz, SF9BW125, 4/5CR
2026-05-03 16:09:36 20.5625°C 81.8125% 3.39V v255 No position 3627 ttn.v3 - -107 2.25 867.7MHz, SF9BW125, 4/5CR
- -113 -12 867.7MHz, SF9BW125, 4/5CR
2026-05-03 15:37:09 21.5°C 76.6875% 3.39V v255 No position 3625 ttn.v3 - -114 -9.5 867.5MHz, SF9BW125, 4/5CR
2026-05-03 15:04:42 21.4375°C 76.8125% 3.39V v255 No position 3623 ttn.v3 - -104 -7.75 867.3MHz, SF9BW125, 4/5CR
- -112 -10.75 867.3MHz, SF9BW125, 4/5CR
2026-05-03 14:32:15 21.1875°C 77.6875% 3.39V v255 No position 3621 ttn.v3 - -104 0 867.1MHz, SF9BW125, 4/5CR
- -115 -9.25 867.1MHz, SF9BW125, 4/5CR
2026-05-03 13:59:48 20.875°C 80.75% 3.39V v255 No position 3619 ttn.v3 - -107 2.25 867.9MHz, SF9BW125, 4/5CR
2026-05-03 13:43:34 21.6875°C 75.5% 3.39V v255 No position 3618 ttn.v3 - -115 -9.75 868.5MHz, SF9BW125, 4/5CR
2026-05-03 13:27:21 21.5°C 75.75% 3.38V v255 No position 3617 ttn.v3 - -114 -8 867.7MHz, SF9BW125, 4/5CR
2026-05-03 12:54:54 20.25°C 82.4375% 3.39V v255 No position 3615 ttn.v3 - -114 -8.75 867.5MHz, SF9BW125, 4/5CR
2026-05-03 12:38:40 21.4375°C 77.0625% 3.39V v255 No position 3614 ttn.v3 - -113 -13.25 868.1MHz, SF9BW125, 4/5CR
2026-05-03 12:22:26 22°C 73.6875% 3.39V v255 No position 3613 ttn.v3 - -101 1.5 867.3MHz, SF9BW125, 4/5CR
- -114 -5.25 867.3MHz, SF9BW125, 4/5CR
2026-05-03 11:49:59 22.1875°C 70.75% 3.39V v255 No position 3611 ttn.v3 - -105 0.75 867.1MHz, SF9BW125, 4/5CR
- -115 -5.5 867.1MHz, SF9BW125, 4/5CR
2026-05-03 11:33:45 22°C 71.3125% 3.39V v255 No position 3610 ttn.v3 - -114 -7.25 868.3MHz, SF9BW125, 4/5CR
2026-05-03 11:17:32 21.3125°C 73.375% 3.38V v255 No position 3609 ttn.v3 - -109 -4 867.9MHz, SF9BW125, 4/5CR
- -115 -6.25 867.9MHz, SF9BW125, 4/5CR
2026-05-03 11:01:18 22.0625°C 69.125% 3.39V v255 No position 3608 ttn.v3 - -103 3.5 868.1MHz, SF9BW125, 4/5CR
- -115 -7.25 868.1MHz, SF9BW125, 4/5CR
2026-05-03 10:45:04 22.375°C 70.375% 3.39V v255 No position 3607 ttn.v3 - -92 4.5 867.7MHz, SF9BW125, 4/5CR
- -113 -6.25 867.7MHz, SF9BW125, 4/5CR
2026-05-03 10:28:50 22.3125°C 69.6875% 3.38V v255 No position 3606 ttn.v3 - -95 -10.5 868.5MHz, SF9BW125, 4/5CR
- -114 -12 868.5MHz, SF9BW125, 4/5CR
2026-05-03 10:12:36 22.5°C 68.75% 3.39V v255 No position 3605 ttn.v3 - -113 -10.75 867.5MHz, SF9BW125, 4/5CR
2026-05-03 09:40:08 22.5625°C 64% 3.39V v255 No position 3603 ttn.v3 - -101 -4.75 867.3MHz, SF9BW125, 4/5CR
- -114 -8.75 867.3MHz, SF9BW125, 4/5CR
2026-05-03 09:23:54 22.4375°C 61.875% 3.39V v255 No position 3602 ttn.v3 - -101 0 868.1MHz, SF9BW125, 4/5CR
2026-05-03 09:07:41 22.3125°C 62.0625% 3.38V v255 No position 3601 ttn.v3 - -114 -8.75 867.1MHz, SF9BW125, 4/5CR
2026-05-03 08:51:27 22.25°C 62.1875% 3.38V v255 No position 3600 ttn.v3 - -114 -11 868.5MHz, SF9BW125, 4/5CR
2026-05-03 08:35:13 22.125°C 62.6875% 3.39V v255 No position 3599 ttn.v3 - -104 4 867.9MHz, SF9BW125, 4/5CR
- -115 -8.25 867.9MHz, SF9BW125, 4/5CR
2026-05-03 08:02:45 22°C 62.5625% 3.39V v255 No position 3597 ttn.v3 - -101 3.25 867.7MHz, SF9BW125, 4/5CR
2026-05-03 07:46:32 21.9375°C 62.75% 3.39V v255 No position 3596 ttn.v3 - -107 1.25 868.1MHz, SF9BW125, 4/5CR
2026-05-03 07:30:18 21.875°C 62.8125% 3.39V v255 No position 3595 ttn.v3 - -113 -11.5 867.5MHz, SF9BW125, 4/5CR
2026-05-03 06:57:51 21.875°C 62.9375% 3.39V v255 No position 3593 ttn.v3 - -104 2.25 867.3MHz, SF9BW125, 4/5CR
- -114 -11.25 867.3MHz, SF9BW125, 4/5CR
2026-05-03 06:25:23 21.8125°C 62.8125% 3.39V v255 No position 3591 ttn.v3 - -104 -2 867.1MHz, SF9BW125, 4/5CR
- -115 -11.5 867.1MHz, SF9BW125, 4/5CR
2026-05-03 05:52:56 21.8125°C 62.5625% 3.38V v255 No position 3589 ttn.v3 - -104 2 867.9MHz, SF9BW125, 4/5CR
2026-05-03 05:20:28 21.75°C 62.3125% 3.38V v255 No position 3587 ttn.v3 - -103 0.25 867.7MHz, SF9BW125, 4/5CR
- -114 -13.5 867.7MHz, SF9BW125, 4/5CR
2026-05-03 04:48:01 21.8125°C 62.125% 3.39V v255 No position 3585 ttn.v3 - -113 -11.75 867.5MHz, SF9BW125, 4/5CR
2026-05-03 04:31:47 21.75°C 62.0625% 3.39V v255 No position 3584 ttn.v3 - -88 -3.25 868.1MHz, SF9BW125, 4/5CR
2026-05-03 04:15:34 21.75°C 62.0625% 3.38V v255 No position 3583 ttn.v3 - -114 -10 867.3MHz, SF9BW125, 4/5CR
2026-05-03 03:43:06 21.6875°C 62.0625% 3.39V v255 No position 3581 ttn.v3 - -102 -3.25 867.1MHz, SF9BW125, 4/5CR
- -117 -10.75 867.1MHz, SF9BW125, 4/5CR
2026-05-03 02:38:12 21.5625°C 62.5625% 3.39V v255 No position 3577 ttn.v3 - -103 -3.5 867.7MHz, SF9BW125, 4/5CR
2026-05-03 01:17:04 21.375°C 61.6875% 3.39V v255 No position 3572 ttn.v3 - -113 -11.5 868.1MHz, SF9BW125, 4/5CR
2026-05-03 01:00:51 21.3125°C 62.375% 3.39V v255 No position 3571 ttn.v3 - -105 -3.5 867.1MHz, SF9BW125, 4/5CR
2026-05-03 00:44:37 21.25°C 62.75% 3.39V v255 No position 3570 ttn.v3 - -113 -13.75 868.5MHz, SF9BW125, 4/5CR
2026-05-03 00:28:24 21.25°C 62.0625% 3.38V v255 No position 3569 ttn.v3 - -107 -1.75 867.9MHz, SF9BW125, 4/5CR
2026-05-02 23:39:44 20.4375°C 61.625% 3.39V v255 No position 3566 ttn.v3 - -104 -1 868.1MHz, SF9BW125, 4/5CR
- -114 -14.25 868.1MHz, SF9BW125, 4/5CR
2026-05-02 22:51:04 20.625°C 53.6875% 3.39V v255 No position 3563 ttn.v3 - -104 1.75 867.3MHz, SF9BW125, 4/5CR
2026-05-02 22:18:37 21.25°C 56.25% 3.39V v255 No position 3561 ttn.v3 - -101 5.75 867.1MHz, SF9BW125, 4/5CR
2026-05-02 22:02:23 21.0625°C 56.5625% 3.39V v255 No position 3560 ttn.v3 - -103 -3.5 868.1MHz, SF9BW125, 4/5CR
- -115 -12 868.1MHz, SF9BW125, 4/5CR
2026-05-02 21:46:10 21.5°C 55.125% 3.39V v255 No position 3559 ttn.v3 - -104 7.75 867.9MHz, SF9BW125, 4/5CR
- -113 -11 867.9MHz, SF9BW125, 4/5CR
2026-05-02 21:29:56 21.75°C 55.4375% 3.39V v255 No position 3558 ttn.v3 - -95 -7.75 868.5MHz, SF9BW125, 4/5CR
- -114 -11.25 868.5MHz, SF9BW125, 4/5CR
2026-05-02 21:13:43 21.875°C 55.0625% 3.39V v255 No position 3557 ttn.v3 - -114 -9.75 867.7MHz, SF9BW125, 4/5CR
2026-05-02 20:41:15 22.3125°C 54.75% 3.39V v255 No position 3555 ttn.v3 - -114 -12.25 867.5MHz, SF9BW125, 4/5CR
2026-05-02 20:25:01 22.5°C 54.5625% 3.38V v255 No position 3554 ttn.v3 - -86 2.25 868.1MHz, SF9BW125, 4/5CR
- -115 -11.5 868.1MHz, SF9BW125, 4/5CR
2026-05-02 20:08:47 23°C 54.75% 3.39V v255 No position 3553 ttn.v3 - -103 3.25 867.3MHz, SF9BW125, 4/5CR
- -115 -9.25 867.3MHz, SF9BW125, 4/5CR
2026-05-02 19:54:45 23.0625°C 54.5625% 3.38V v255 No position 3552 ttn.v3 - -93 -5.75 868.5MHz, SF12BW125, 4/5CR
- -112 -10.75 868.5MHz, SF12BW125, 4/5CR
2026-05-02 19:36:30 23.4375°C 54.8125% 3.38V v255 No position 3551 ttn.v3 - -103 7.5 867.1MHz, SF9BW125, 4/5CR
- -114 -9 867.1MHz, SF9BW125, 4/5CR
2026-05-02 19:20:15 24°C 55.5% 3.39V v255 No position 3550 ttn.v3 - -91 -3.75 868.3MHz, SF9BW125, 4/5CR
2026-05-02 19:04:01 24.0625°C 53.3125% 3.38V v255 No position 3549 ttn.v3 - -101 8.5 867.9MHz, SF9BW125, 4/5CR
- -115 -8.5 867.9MHz, SF9BW125, 4/5CR
2026-05-02 18:47:46 23.9375°C 54.5% 3.38V v255 No position 3548 ttn.v3 - -99 4.5 868.1MHz, SF9BW125, 4/5CR
2026-05-02 18:31:32 24°C 55% 3.38V v255 No position 3547 ttn.v3 - -101 4.5 867.7MHz, SF9BW125, 4/5CR
- -114 -8.25 867.7MHz, SF9BW125, 4/5CR
2026-05-02 18:15:18 23.9375°C 55.75% 3.38V v255 No position 3546 ttn.v3 - -93 -8.75 868.5MHz, SF9BW125, 4/5CR
2026-05-02 17:42:49 24.1875°C 56.625% 3.39V v255 No position 3544 ttn.v3 - -93 -10.5 868.3MHz, SF9BW125, 4/5CR
2026-05-02 17:26:34 24.25°C 57.1875% 3.38V v255 No position 3543 ttn.v3 - -103 5 867.3MHz, SF9BW125, 4/5CR
- -114 -10.25 867.3MHz, SF9BW125, 4/5CR
2026-05-02 17:10:20 24.25°C 57.875% 3.39V v255 No position 3542 ttn.v3 - -80 -5.25 868.1MHz, SF9BW125, 4/5CR
- -115 -11 868.1MHz, SF9BW125, 4/5CR
2026-05-02 16:54:05 24.3125°C 58.375% 3.39V v255 No position 3541 ttn.v3 - -104 -1.25 867.1MHz, SF9BW125, 4/5CR
- -115 -7.75 867.1MHz, SF9BW125, 4/5CR
2026-05-02 16:21:37 24.1875°C 59.625% 3.38V v255 No position 3539 ttn.v3 - -98 7.25 867.9MHz, SF9BW125, 4/5CR
- -114 -7.25 867.9MHz, SF9BW125, 4/5CR
2026-05-02 16:05:22 24.0625°C 59.875% 3.38V v255 No position 3538 ttn.v3 - -93 -9 868.3MHz, SF9BW125, 4/5CR
2026-05-02 15:49:08 23.9375°C 59.5% 3.38V v255 No position 3537 ttn.v3 - -96 6.5 867.7MHz, SF9BW125, 4/5CR
- -120 -5.25 867.7MHz, SF9BW125, 4/5CR
2026-05-02 15:32:54 23.75°C 59.875% 3.39V v255 No position 3536 ttn.v3 - -103 5.25 868.1MHz, SF9BW125, 4/5CR
- -112 -9.25 868.1MHz, SF9BW125, 4/5CR
2026-05-02 15:16:39 23.625°C 59.6875% 3.38V v255 No position 3535 ttn.v3 - -112 -10 867.5MHz, SF9BW125, 4/5CR
2026-05-02 15:00:25 23.4375°C 59.75% 3.39V v255 No position 3534 ttn.v3 - -93 -7 868.5MHz, SF9BW125, 4/5CR
- -113 -8 868.5MHz, SF9BW125, 4/5CR
2026-05-02 14:27:57 23°C 61.3125% 3.38V v255 No position 3532 ttn.v3 - -95 -11 868.3MHz, SF9BW125, 4/5CR
2026-05-02 14:11:43 22.9375°C 61.1875% 3.39V v255 No position 3531 ttn.v3 - -105 1.75 867.1MHz, SF9BW125, 4/5CR
- -114 -6.75 867.1MHz, SF9BW125, 4/5CR
2026-05-02 13:55:29 22.6875°C 62.625% 3.39V v255 No position 3530 ttn.v3 - -97 -3 868.1MHz, SF9BW125, 4/5CR
- -112 -11.5 868.1MHz, SF9BW125, 4/5CR
2026-05-02 13:39:15 22.3125°C 64.9375% 3.39V v255 No position 3529 ttn.v3 - -104 0.5 867.9MHz, SF9BW125, 4/5CR
- -114 -9.25 867.9MHz, SF9BW125, 4/5CR
2026-05-02 13:23:02 22.25°C 62.75% 3.39V v255 No position 3528 ttn.v3 - -92 -3.75 868.5MHz, SF9BW125, 4/5CR
- -114 -10.25 868.5MHz, SF9BW125, 4/5CR
2026-05-02 13:06:48 21.9375°C 64.625% 3.38V v255 No position 3527 ttn.v3 - -103 4.25 867.7MHz, SF9BW125, 4/5CR
- -114 -8 867.7MHz, SF9BW125, 4/5CR
2026-05-02 12:50:34 21.5°C 66.25% 3.39V v255 No position 3526 ttn.v3 - -106 -12.75 868.3MHz, SF9BW125, 4/5CR
2026-05-02 12:34:21 21.3125°C 66.9375% 3.39V v255 No position 3525 ttn.v3 - -114 -8.25 867.5MHz, SF9BW125, 4/5CR
2026-05-02 12:18:07 21°C 68.5% 3.39V v255 No position 3524 ttn.v3 - -103 3.25 868.1MHz, SF9BW125, 4/5CR
- -115 -9.25 868.1MHz, SF9BW125, 4/5CR
2026-05-02 12:01:54 20.875°C 69.375% 3.39V v255 No position 3523 ttn.v3 - -99 2.25 867.3MHz, SF9BW125, 4/5CR
- -114 -7.5 867.3MHz, SF9BW125, 4/5CR
2026-05-02 11:29:28 20.625°C 68.1875% 3.39V v255 No position 3521 ttn.v3 - -103 1 867.1MHz, SF9BW125, 4/5CR
- -115 -9 867.1MHz, SF9BW125, 4/5CR
2026-05-02 11:13:14 20.3125°C 74.4375% 3.39V v255 No position 3520 ttn.v3 - -93 -9.5 868.3MHz, SF9BW125, 4/5CR
- -112 -12.5 868.3MHz, SF9BW125, 4/5CR
2026-05-02 10:57:01 19.25°C 62.75% 3.39V v255 No position 3519 ttn.v3 - -104 7.25 867.9MHz, SF9BW125, 4/5CR
- -114 -9.5 867.9MHz, SF9BW125, 4/5CR
2026-05-02 10:40:49 19.5°C 58.1875% 3.39V v255 No position 3518 ttn.v3 - -98 4 868.1MHz, SF9BW125, 4/5CR
- -112 -9.5 868.1MHz, SF9BW125, 4/5CR
2026-05-02 10:24:35 20°C 53.9375% 3.39V v255 No position 3517 ttn.v3 - -101 5 867.7MHz, SF9BW125, 4/5CR
- -113 -8.5 867.7MHz, SF9BW125, 4/5CR
2026-05-02 10:08:22 20.125°C 52% 3.39V v255 No position 3516 ttn.v3 - -91 -10.75 868.5MHz, SF9BW125, 4/5CR
2026-05-02 09:52:09 20.0625°C 51.125% 3.39V v255 No position 3515 ttn.v3 - -111 -10.25 867.5MHz, SF9BW125, 4/5CR
2026-05-02 09:19:43 19.125°C 51.8125% 3.39V v255 No position 3513 ttn.v3 - -88 5 867.3MHz, SF9BW125, 4/5CR
- -113 -8.25 867.3MHz, SF9BW125, 4/5CR
2026-05-02 09:03:30 19.9375°C 48.5% 3.39V v255 No position 3512 ttn.v3 - -101 3.75 868.1MHz, SF9BW125, 4/5CR
- -110 -9.5 868.1MHz, SF9BW125, 4/5CR
2026-05-02 08:47:17 19.9375°C 48.25% 3.39V v255 No position 3511 ttn.v3 - -101 6.5 867.1MHz, SF9BW125, 4/5CR
- -115 -7 867.1MHz, SF9BW125, 4/5CR
2026-05-02 08:31:04 19.8125°C 48.125% 3.39V v255 No position 3510 ttn.v3 - -92 -8 868.5MHz, SF9BW125, 4/5CR
2026-05-02 08:14:51 19.625°C 48.0625% 3.39V v255 No position 3509 ttn.v3 - -101 9 867.9MHz, SF9BW125, 4/5CR
- -115 -8.25 867.9MHz, SF9BW125, 4/5CR
2026-05-02 07:58:38 19.6875°C 49.0625% 3.39V v255 No position 3508 ttn.v3 - -112 -9.5 868.3MHz, SF9BW125, 4/5CR
- -93 -11 868.3MHz, SF9BW125, 4/5CR
2026-05-02 07:42:25 18.875°C 49.25% 3.39V v255 No position 3507 ttn.v3 - -101 6.25 867.7MHz, SF9BW125, 4/5CR
- -114 -9.75 867.7MHz, SF9BW125, 4/5CR
2026-05-02 07:26:12 19.375°C 48.8125% 3.39V v255 No position 3506 ttn.v3 - -98 0.25 868.1MHz, SF9BW125, 4/5CR
- -114 -10.75 868.1MHz, SF9BW125, 4/5CR
2026-05-02 07:09:59 19.8125°C 48.375% 3.39V v255 No position 3505 ttn.v3 - -114 -9.5 867.5MHz, SF9BW125, 4/5CR
2026-05-02 06:53:46 18.8125°C 50.5% 3.39V v255 No position 3504 ttn.v3 - -112 -13.25 868.5MHz, SF9BW125, 4/5CR
2026-05-02 06:37:33 19.8125°C 48.875% 3.39V v255 No position 3503 ttn.v3 - -91 4 867.3MHz, SF9BW125, 4/5CR
- -114 -7.75 867.3MHz, SF9BW125, 4/5CR
2026-05-02 06:21:20 19.9375°C 47.625% 3.39V v255 No position 3502 ttn.v3 - -86 -8 868.3MHz, SF9BW125, 4/5CR
- -114 -11.5 868.3MHz, SF9BW125, 4/5CR
2026-05-02 06:05:07 20°C 47% 3.38V v255 No position 3501 ttn.v3 - -101 6.5 867.1MHz, SF9BW125, 4/5CR
- -115 -6.25 867.1MHz, SF9BW125, 4/5CR
- -120 -11 867.1MHz, SF9BW125, 4/5CR
2026-05-02 05:48:54 20.375°C 46.8125% 3.39V v255 No position 3500 ttn.v3 - -101 5.5 868.1MHz, SF9BW125, 4/5CR
- -115 -9 868.1MHz, SF9BW125, 4/5CR
2026-05-02 05:32:40 20.375°C 46.625% 3.39V v255 No position 3499 ttn.v3 - -103 9 867.9MHz, SF9BW125, 4/5CR
- -115 -8.5 867.9MHz, SF9BW125, 4/5CR
2026-05-02 05:16:27 20.5625°C 46.25% 3.39V v255 No position 3498 ttn.v3 - -92 -6.75 868.5MHz, SF9BW125, 4/5CR
- -112 -10.25 868.5MHz, SF9BW125, 4/5CR
2026-05-02 05:00:14 20.5°C 47.0625% 3.39V v255 No position 3497 ttn.v3 - -98 7.5 867.7MHz, SF9BW125, 4/5CR
- -114 -8.25 867.7MHz, SF9BW125, 4/5CR
2026-05-02 04:27:47 20.5°C 46.4375% 3.39V v255 No position 3495 ttn.v3 - -114 -6.75 867.5MHz, SF9BW125, 4/5CR
- -84 -13.5 867.5MHz, SF9BW125, 4/5CR
2026-05-02 04:11:34 20.5°C 46.0625% 3.38V v255 No position 3494 ttn.v3 - -97 -0.5 868.1MHz, SF9BW125, 4/5CR
- -113 -11 868.1MHz, SF9BW125, 4/5CR
2026-05-02 03:55:21 21°C 45.5% 3.39V v255 No position 3493 ttn.v3 - -101 4.25 867.3MHz, SF9BW125, 4/5CR
- -114 -6.5 867.3MHz, SF9BW125, 4/5CR
2026-05-02 03:39:07 21.1875°C 44.75% 3.38V v255 No position 3492 ttn.v3 - -92 -7.25 868.5MHz, SF9BW125, 4/5CR
- -114 -11.25 868.5MHz, SF9BW125, 4/5CR
2026-05-02 03:22:54 21.25°C 44.875% 3.39V v255 No position 3491 ttn.v3 - -101 -1.5 867.1MHz, SF9BW125, 4/5CR
- -115 -5.5 867.1MHz, SF9BW125, 4/5CR
2026-05-02 03:06:40 21.3125°C 44.4375% 3.39V v255 No position 3490 ttn.v3 - -93 -8.25 868.3MHz, SF9BW125, 4/5CR
- -114 -9 868.3MHz, SF9BW125, 4/5CR
2026-05-02 02:50:26 21.375°C 44% 3.38V v255 No position 3489 ttn.v3 - -114 -8 867.9MHz, SF9BW125, 4/5CR
2026-05-02 02:34:13 21.5625°C 43.625% 3.39V v255 No position 3488 ttn.v3 - -101 1.75 868.1MHz, SF9BW125, 4/5CR
- -112 -11.25 868.1MHz, SF9BW125, 4/5CR
2026-05-02 02:17:59 21.625°C 43.4375% 3.39V v255 No position 3487 ttn.v3 - -96 1.75 867.7MHz, SF9BW125, 4/5CR
- -112 -8.75 867.7MHz, SF9BW125, 4/5CR
2026-05-02 02:01:46 21.6875°C 43.4375% 3.39V v255 No position 3486 ttn.v3 - -93 -6.75 868.5MHz, SF9BW125, 4/5CR
- -114 -12.5 868.5MHz, SF9BW125, 4/5CR
2026-05-02 01:45:32 21.6875°C 43.125% 3.38V v255 No position 3485 ttn.v3 - -114 -7.75 867.5MHz, SF9BW125, 4/5CR
2026-05-02 01:29:19 21.75°C 43.3125% 3.39V v255 No position 3484 ttn.v3 - -91 -11 868.3MHz, SF9BW125, 4/5CR
2026-05-02 01:13:05 21.875°C 42.8125% 3.39V v255 No position 3483 ttn.v3 - -99 5.25 867.3MHz, SF9BW125, 4/5CR
- -114 -6 867.3MHz, SF9BW125, 4/5CR
2026-05-02 00:56:51 21.875°C 43.9375% 3.39V v255 No position 3482 ttn.v3 - -101 6.75 868.1MHz, SF9BW125, 4/5CR
- -112 -10.75 868.1MHz, SF9BW125, 4/5CR
2026-05-02 00:40:38 21.9375°C 43.625% 3.39V v255 No position 3481 ttn.v3 - -99 6.5 867.1MHz, SF9BW125, 4/5CR
- -114 -5.5 867.1MHz, SF9BW125, 4/5CR
2026-05-02 00:24:24 22.0625°C 42.875% 3.39V v255 No position 3480 ttn.v3 - -93 -6 868.5MHz, SF9BW125, 4/5CR
- -113 -13.25 868.5MHz, SF9BW125, 4/5CR
2026-05-02 00:08:10 22.1875°C 42.125% 3.39V v255 No position 3479 ttn.v3 - -101 7.75 867.9MHz, SF9BW125, 4/5CR
- -115 -8.25 867.9MHz, SF9BW125, 4/5CR
2026-05-01 23:51:56 22.25°C 41.375% 3.38V v255 No position 3478 ttn.v3 - -93 -5.5 868.3MHz, SF9BW125, 4/5CR
2026-05-01 23:35:42 22.4375°C 41.3125% 3.39V v255 No position 3477 ttn.v3 - -99 1.75 867.7MHz, SF9BW125, 4/5CR
- -113 -8.25 867.7MHz, SF9BW125, 4/5CR
2026-05-01 23:19:29 22.5°C 41% 3.39V v255 No position 3476 ttn.v3 - -101 4 868.1MHz, SF9BW125, 4/5CR
- -112 -12.5 868.1MHz, SF9BW125, 4/5CR
2026-05-01 23:03:15 22.625°C 40.8125% 3.38V v255 No position 3475 ttn.v3 - -112 -10.5 867.5MHz, SF9BW125, 4/5CR
2026-05-01 22:47:01 22.6875°C 40.8125% 3.39V v255 No position 3474 ttn.v3 - -93 -8.75 868.5MHz, SF9BW125, 4/5CR
- -114 -13.5 868.5MHz, SF9BW125, 4/5CR
2026-05-01 22:30:47 22.8125°C 41.6875% 3.38V v255 No position 3473 ttn.v3 - -111 -10.75 867.3MHz, SF9BW125, 4/5CR
2026-05-01 22:14:33 23.0625°C 42.3125% 3.38V v255 No position 3472 ttn.v3 - -91 -8.25 868.3MHz, SF9BW125, 4/5CR
2026-05-01 21:58:19 23.0625°C 40.1875% 3.39V v255 No position 3471 ttn.v3 - -101 -4 867.1MHz, SF9BW125, 4/5CR
- -115 -10.25 867.1MHz, SF9BW125, 4/5CR
2026-05-01 21:42:05 23.0625°C 38.8125% 3.39V v255 No position 3470 ttn.v3 - -103 3.75 868.1MHz, SF9BW125, 4/5CR
- -115 -11.5 868.1MHz, SF9BW125, 4/5CR
2026-05-01 21:25:51 23.125°C 38.4375% 3.38V v255 No position 3469 ttn.v3 - -103 2.25 867.9MHz, SF9BW125, 4/5CR
- -115 -9.75 867.9MHz, SF9BW125, 4/5CR
2026-05-01 21:09:37 23.3125°C 38.1875% 3.38V v255 No position 3468 ttn.v3 - -92 -5.25 868.5MHz, SF9BW125, 4/5CR
2026-05-01 20:53:23 23.3125°C 37.9375% 3.38V v255 No position 3467 ttn.v3 - -97 8.5 867.7MHz, SF9BW125, 4/5CR
- -114 -10 867.7MHz, SF9BW125, 4/5CR
2026-05-01 20:37:08 23.375°C 36.5% 3.39V v255 No position 3466 ttn.v3 - -97 -7.5 868.3MHz, SF9BW125, 4/5CR
2026-05-01 20:20:54 23.3125°C 34.6875% 3.39V v255 No position 3465 ttn.v3 - -112 -10.5 867.5MHz, SF9BW125, 4/5CR
2026-05-01 19:48:26 23.4375°C 34.3125% 3.39V v255 No position 3463 ttn.v3 - -101 7.5 867.3MHz, SF9BW125, 4/5CR
- -114 -7.25 867.3MHz, SF9BW125, 4/5CR
2026-05-01 19:32:12 23.4375°C 33.6875% 3.38V v255 No position 3462 ttn.v3 - -92 -7.25 868.5MHz, SF9BW125, 4/5CR
- -113 -10.75 868.5MHz, SF9BW125, 4/5CR
2026-05-01 19:15:57 23.5625°C 33.5625% 3.39V v255 No position 3461 ttn.v3 - -103 8 867.1MHz, SF9BW125, 4/5CR
- -115 -3.75 867.1MHz, SF9BW125, 4/5CR
2026-05-01 18:43:29 23.6875°C 33.6875% 3.38V v255 No position 3459 ttn.v3 - -101 6.5 867.9MHz, SF9BW125, 4/5CR
- -115 -7.75 867.9MHz, SF9BW125, 4/5CR
- -121 -10.5 867.9MHz, SF9BW125, 4/5CR
2026-05-01 18:27:15 23.8125°C 33.125% 3.39V v255 No position 3458 ttn.v3 - -101 1 868.1MHz, SF9BW125, 4/5CR
- -113 -9.25 868.1MHz, SF9BW125, 4/5CR
2026-05-01 18:11:01 23.9375°C 34.25% 3.38V v255 No position 3457 ttn.v3 - -99 5.5 867.7MHz, SF9BW125, 4/5CR
- -114 -8.25 867.7MHz, SF9BW125, 4/5CR
2026-05-01 17:56:58 23.9375°C 34.5% 3.38V v255 No position 3456 ttn.v3 - -93 -9.5 868.5MHz, SF12BW125, 4/5CR
- -113 -10.75 868.5MHz, SF12BW125, 4/5CR
- -118 -16 868.5MHz, SF12BW125, 4/5CR
2026-05-01 17:38:43 23.875°C 35% 3.38V v255 No position 3455 ttn.v3 - -111 -12.25 867.5MHz, SF9BW125, 4/5CR
2026-05-01 17:06:14 23.5625°C 34.6875% 3.39V v255 No position 3453 ttn.v3 - -98 7.5 867.3MHz, SF9BW125, 4/5CR
- -114 -7.25 867.3MHz, SF9BW125, 4/5CR
2026-05-01 16:50:00 23.4375°C 33.625% 3.39V v255 No position 3452 ttn.v3 - -103 3 868.1MHz, SF9BW125, 4/5CR
- -115 -12.75 868.1MHz, SF9BW125, 4/5CR
2026-05-01 16:33:46 23.125°C 34.0625% 3.39V v255 No position 3451 ttn.v3 - -104 -5.5 867.1MHz, SF9BW125, 4/5CR
- -114 -9.75 867.1MHz, SF9BW125, 4/5CR
- -121 -10.5 867.1MHz, SF9BW125, 4/5CR
2026-05-01 16:17:32 22.875°C 35.6875% 3.39V v255 No position 3450 ttn.v3 - -91 -7.5 868.5MHz, SF9BW125, 4/5CR
- -115 -12.75 868.5MHz, SF9BW125, 4/5CR
- -118 -15.75 868.5MHz, SF9BW125, 4/5CR
2026-05-01 16:01:18 22.625°C 38% 3.39V v255 No position 3449 ttn.v3 - -101 6.75 867.9MHz, SF9BW125, 4/5CR
- -115 -6 867.9MHz, SF9BW125, 4/5CR
2026-05-01 15:28:51 22.3125°C 37.8125% 3.39V v255 No position 3447 ttn.v3 - -101 5.75 867.7MHz, SF9BW125, 4/5CR
- -113 -8.5 867.7MHz, SF9BW125, 4/5CR
2026-05-01 15:12:37 22.125°C 37.75% 3.39V v255 No position 3446 ttn.v3 - -99 3.5 868.1MHz, SF9BW125, 4/5CR
- -114 -9.5 868.1MHz, SF9BW125, 4/5CR
2026-05-01 14:56:23 22°C 38.875% 3.39V v255 No position 3445 ttn.v3 - -93 -13.75 867.5MHz, SF9BW125, 4/5CR
2026-05-01 14:40:09 21.875°C 38.5625% 3.39V v255 No position 3444 ttn.v3 - -96 -8.25 868.5MHz, SF9BW125, 4/5CR
2026-05-01 14:23:56 21.8125°C 38.5625% 3.39V v255 No position 3443 ttn.v3 - -103 8 867.3MHz, SF9BW125, 4/5CR
- -113 -11.25 867.3MHz, SF9BW125, 4/5CR
2026-05-01 14:07:42 21.6875°C 38.5625% 3.38V v255 No position 3442 ttn.v3 - -97 -9.75 868.3MHz, SF9BW125, 4/5CR
2026-05-01 13:51:28 21.5625°C 37.8125% 3.39V v255 No position 3441 ttn.v3 - -104 5.5 867.1MHz, SF9BW125, 4/5CR
- -122 -10.5 867.1MHz, SF9BW125, 4/5CR
2026-05-01 13:35:15 21.375°C 37.25% 3.39V v255 No position 3440 ttn.v3 - -104 2.25 868.1MHz, SF9BW125, 4/5CR
2026-05-01 13:19:02 21.3125°C 36.9375% 3.39V v255 No position 3439 ttn.v3 - -101 5.75 867.9MHz, SF9BW125, 4/5CR
- -115 -12 867.9MHz, SF9BW125, 4/5CR
2026-05-01 13:02:48 21.1875°C 38.5% 3.39V v255 No position 3438 ttn.v3 - -92 -9.75 868.5MHz, SF9BW125, 4/5CR
2026-05-01 12:46:34 21.0625°C 37.375% 3.39V v255 No position 3437 ttn.v3 - -99 3.75 867.7MHz, SF9BW125, 4/5CR
- -118 -7.25 867.7MHz, SF9BW125, 4/5CR
2026-05-01 12:30:21 20.8125°C 34.75% 3.39V v255 No position 3436 ttn.v3 - -95 -6.25 868.3MHz, SF9BW125, 4/5CR
2026-05-01 11:57:54 20.625°C 36.5625% 3.39V v255 No position 3434 ttn.v3 - -103 2.75 868.1MHz, SF9BW125, 4/5CR
- -113 -10.75 868.1MHz, SF9BW125, 4/5CR
2026-05-01 11:41:41 20.5625°C 37.8125% 3.39V v255 No position 3433 ttn.v3 - -103 2.25 867.3MHz, SF9BW125, 4/5CR
2026-05-01 11:25:28 20.375°C 37.8125% 3.39V v255 No position 3432 ttn.v3 - -93 -11 868.5MHz, SF9BW125, 4/5CR
2026-05-01 11:09:15 20.375°C 39.75% 3.39V v255 No position 3431 ttn.v3 - -103 5.75 867.1MHz, SF9BW125, 4/5CR
- -115 -12.5 867.1MHz, SF9BW125, 4/5CR
2026-05-01 10:53:02 20.1875°C 38.9375% 3.39V v255 No position 3430 ttn.v3 - -91 -11.5 868.3MHz, SF9BW125, 4/5CR
2026-05-01 10:36:48 20.125°C 39.5625% 3.39V v255 No position 3429 ttn.v3 - -105 5.25 867.9MHz, SF9BW125, 4/5CR
- -123 -11.5 867.9MHz, SF9BW125, 4/5CR
2026-05-01 10:20:35 20.125°C 40.4375% 3.39V v255 No position 3428 ttn.v3 - -98 -7.25 868.1MHz, SF9BW125, 4/5CR
2026-05-01 09:48:09 20.1875°C 42.375% 3.39V v255 No position 3426 ttn.v3 - -95 -8.25 868.5MHz, SF9BW125, 4/5CR
2026-05-01 09:31:56 20.125°C 42.9375% 3.39V v255 No position 3425 ttn.v3 - -92 -10 867.5MHz, SF9BW125, 4/5CR
2026-05-01 08:43:16 19.9375°C 44% 3.39V v255 No position 3422 ttn.v3 - -103 -1.75 868.1MHz, SF9BW125, 4/5CR
2026-05-01 08:27:03 19.8125°C 44.1875% 3.39V v255 No position 3421 ttn.v3 - -103 4.75 867.1MHz, SF9BW125, 4/5CR
2026-05-01 08:10:50 19.8125°C 44.5% 3.39V v255 No position 3420 ttn.v3 - -93 -10.75 868.5MHz, SF9BW125, 4/5CR
2026-05-01 07:54:37 19.6875°C 44.75% 3.39V v255 No position 3419 ttn.v3 - -103 4 867.9MHz, SF9BW125, 4/5CR
2026-05-01 07:22:11 19.5625°C 45.1875% 3.39V v255 No position 3417 ttn.v3 - -101 3.25 867.7MHz, SF9BW125, 4/5CR
- -116 -4.25 867.7MHz, SF9BW125, 4/5CR
2026-05-01 07:05:58 19.5°C 45.3125% 3.39V v255 No position 3416 ttn.v3 - -101 4.25 868.1MHz, SF9BW125, 4/5CR
2026-05-01 06:33:32 19.6875°C 45.625% 3.39V v255 No position 3414 ttn.v3 - -91 -11.5 868.5MHz, SF9BW125, 4/5CR
2026-05-01 06:17:19 19.75°C 45.1875% 3.39V v255 No position 3413 ttn.v3 - -105 2.75 867.3MHz, SF9BW125, 4/5CR
- -115 -9.5 867.3MHz, SF9BW125, 4/5CR
- -122 -9.5 867.3MHz, SF9BW125, 4/5CR
2026-05-01 05:44:53 19.75°C 44.875% 3.39V v255 No position 3411 ttn.v3 - -103 5.75 867.1MHz, SF9BW125, 4/5CR
2026-05-01 05:28:40 19.75°C 45.0625% 3.39V v255 No position 3410 ttn.v3 - -105 6.5 868.1MHz, SF9BW125, 4/5CR
2026-05-01 05:12:27 19.875°C 45% 3.39V v255 No position 3409 ttn.v3 - -101 8.25 867.9MHz, SF9BW125, 4/5CR
- -120 -5.5 867.9MHz, SF9BW125, 4/5CR
2026-05-01 04:56:14 19.875°C 44.9375% 3.39V v255 No position 3408 ttn.v3 - -93 -8.5 868.5MHz, SF9BW125, 4/5CR
2026-05-01 04:40:01 19.9375°C 45.0625% 3.39V v255 No position 3407 ttn.v3 - -101 1.5 867.7MHz, SF9BW125, 4/5CR
- -118 -5.5 867.7MHz, SF9BW125, 4/5CR
2026-05-01 04:07:35 19.9375°C 44.5% 3.39V v255 No position 3405 ttn.v3 - -95 -10.75 867.5MHz, SF9BW125, 4/5CR
2026-05-01 03:51:22 19.9375°C 44.3125% 3.39V v255 No position 3404 ttn.v3 - -105 1.25 868.1MHz, SF9BW125, 4/5CR
2026-05-01 03:35:09 20°C 44.1875% 3.39V v255 No position 3403 ttn.v3 - -91 1.75 867.3MHz, SF9BW125, 4/5CR
- -113 -12 867.3MHz, SF9BW125, 4/5CR
2026-05-01 03:18:56 20.0625°C 44.25% 3.39V v255 No position 3402 ttn.v3 - -93 -7.5 868.5MHz, SF9BW125, 4/5CR

Message count: 200
Node count: 1

Messages per node

Number of messages in list aboveNodes
200

Statistics per gateway

GatewayNumber of messagesNumber of nodesNodes
1661
1401
141

Filter by dataset